Cleveland Burke, OH

2:58 PM EDT on June 25, 2017 (GMT -0400)
Burke Lakefront

Weather History for KBKL - June, 2013

Change the Weather History Date:

Monday, June 3, 2013

  Actual Average Record
Temperature  
Mean Temperature 55 °F -  
Max Temperature 59 °F 70 °F 81 °F (2005)
Min Temperature 53 °F 55 °F 50 °F (1998)
Degree Days  
Heating Degree Days 10    
Growing Degree Days 5 (Base 50)    
Moisture  
Dew Point 46 °F    
Average Humidity 70    
Maximum Humidity 83    
Minimum Humidity 57    
Precipitation  
Precipitation 0.00 in - - ()
Sea Level Pressure  
Sea Level Pressure 30.04 in    
Wind  
Wind Speed 10 mph (NNE)    
Max Wind Speed 16 mph    
Max Gust Speed 18 mph    
Visibility 10 miles    
Events      
Averages and records for this station are not official NWS values.
T = Trace of Precipitation, MM = Missing Value Source: NWS Daily Summary

Daily Weather History Graph

Daily Weather History Graph

Search for Another Location

Airport or City:

Trip Planner

Search our weather history database for the weather conditions in past years. The results will help you decide how hot, cold, wet, or windy it might be!

Date:

Astronomy

Jun. 03, 2013 Rise Set
Actual Time 5:54 AM EDT 8:55 PM EDT
Civil Twilight 5:20 AM EDT 9:29 PM EDT
Nautical Twilight 4:38 AM EDT 10:12 PM EDT
Astronomical Twilight 3:48 AM EDT 11:02 PM EDT
Moon 2:54 AM EDT (6/3) 4:22 PM EDT (6/3)
Length of Visible Light 16h 08m
Length of Day
15h 01m
Waning Crescent, 22% of the Moon is Illuminated
Jun 3
Waning Crescent
Jun 8
New
Jun 16
First Quarter
Jun 23
Full
Jun 30
Last Quarter

Hourly Weather History & Observations

Time (EDT) Temp. Dew Point Humidity Pressure Visibility Wind Dir Wind Speed Gust Speed Precip Events Conditions
12:53 AM 57.0 °F 51.1 °F 81% 29.95 in 10.0 mi NNE 16.1 mph - N/A   Overcast
1:53 AM 55.9 °F 50.0 °F 80% 29.96 in 10.0 mi NNE 12.7 mph - N/A   Overcast
2:53 AM 55.0 °F 50.0 °F 83% 29.96 in 10.0 mi NNE 13.8 mph - N/A   Overcast
3:53 AM 54.0 °F 48.0 °F 80% 29.98 in 10.0 mi NNE 10.4 mph 18.4 mph N/A   Overcast
4:53 AM 54.0 °F 46.9 °F 77% 29.99 in 10.0 mi NNE 10.4 mph - N/A   Overcast
5:53 AM 53.1 °F 46.0 °F 77% 30.00 in 10.0 mi NNE 8.1 mph - N/A   Overcast
6:53 AM 53.1 °F 46.0 °F 77% 30.02 in 10.0 mi NE 10.4 mph - N/A   Overcast
7:53 AM 53.1 °F 45.0 °F 74% 30.02 in 10.0 mi NNE 10.4 mph - N/A   Overcast
8:53 AM 53.1 °F 45.0 °F 74% 30.04 in 10.0 mi North 11.5 mph - N/A   Overcast
9:07 AM 53.6 °F 46.4 °F 77% 30.04 in 10.0 mi NNE 11.5 mph - N/A   Overcast
9:53 AM 55.9 °F 46.9 °F 72% 30.05 in 10.0 mi NNE 10.4 mph - N/A   Overcast
10:10 AM 55.4 °F 46.4 °F 72% 30.05 in 10.0 mi NNE 9.2 mph - N/A   Overcast
10:53 AM 55.9 °F 46.0 °F 69% 30.06 in 10.0 mi NNE 9.2 mph - N/A   Scattered Clouds
11:00 AM 55.4 °F 46.4 °F 72% 30.05 in 10.0 mi NNE 9.2 mph - N/A   Mostly Cloudy
11:09 AM 55.4 °F 46.4 °F 72% 30.06 in 10.0 mi North 8.1 mph - N/A   Scattered Clouds
11:53 AM 55.9 °F 46.0 °F 69% 30.07 in 10.0 mi North 8.1 mph - N/A   Scattered Clouds
12:53 PM 57.0 °F 46.9 °F 69% 30.07 in 10.0 mi North 6.9 mph - N/A   Partly Cloudy
1:53 PM 57.0 °F 46.0 °F 67% 30.07 in 10.0 mi North 6.9 mph - N/A   Partly Cloudy
2:53 PM 57.0 °F 45.0 °F 64% 30.06 in 10.0 mi North 5.8 mph - N/A   Clear
3:53 PM 57.0 °F 44.1 °F 62% 30.05 in 10.0 mi North 5.8 mph - N/A   Clear
4:53 PM 57.9 °F 45.0 °F 62% 30.04 in 10.0 mi North 5.8 mph - N/A   Clear
5:53 PM 57.9 °F 45.0 °F 62% 30.04 in 10.0 mi Variable 3.5 mph - N/A   Clear
6:53 PM 57.9 °F 43.0 °F 58% 30.04 in 10.0 mi Calm Calm - N/A   Clear
7:53 PM 57.0 °F 42.1 °F 57% 30.05 in 10.0 mi ENE 3.5 mph - N/A   Clear
8:53 PM 55.0 °F 44.1 °F 67% 30.05 in 10.0 mi NNE 3.5 mph - N/A   Clear
9:53 PM 55.9 °F 42.1 °F 60% 30.07 in 10.0 mi Calm Calm - N/A   Clear
10:53 PM 55.0 °F 41.0 °F 59% 30.09 in 10.0 mi SE 3.5 mph - N/A   Clear
11:53 PM 55.0 °F 41.0 °F 59% 30.09 in 10.0 mi SSE 4.6 mph - N/A   Clear